Time,TemperatureF,DewpointF,PressureIn,WindDirection,WindDirectionDegrees,WindSpeedMPH,WindSpeedGustMPH,Humidity,HourlyPrecipIn,Conditions,Clouds,dailyrainin,SoftwareType,DateUTC
2013-04-02 00:30:00,34.7,15.6,29.73,WSW,248,2.0,10.0,45,0.00,,---,0.00,VWS V14.01,2013-04-02 03:30:00,
2013-04-02 01:00:00,34.0,15.4,29.74,WSW,248,2.0,16.0,46,0.00,,---,0.00,VWS V14.01,2013-04-02 04:00:00,
2013-04-02 01:30:00,33.6,15.0,29.75,WSW,248,2.0,9.0,46,0.00,,---,0.00,VWS V14.01,2013-04-02 04:30:00,
2013-04-02 02:00:00,32.8,14.8,29.77,WSW,248,1.0,11.0,47,0.00,,---,0.00,VWS V14.01,2013-04-02 05:00:00,
2013-04-02 02:30:00,31.7,15.7,29.77,WSW,248,0.0,4.0,51,0.00,,---,0.00,VWS V14.01,2013-04-02 05:30:00,
2013-04-02 03:00:00,29.9,16.5,29.77,WSW,248,0.0,0.0,57,0.00,,---,0.00,VWS V14.01,2013-04-02 06:00:00,
2013-04-02 03:30:00,29.8,15.6,29.77,WSW,248,0.0,1.0,55,0.00,,---,0.00,VWS V14.01,2013-04-02 06:30:00,
2013-04-02 04:00:00,29.7,15.9,29.77,WSW,248,0.0,4.0,56,0.00,,---,0.00,VWS V14.01,2013-04-02 07:00:00,
2013-04-02 04:30:00,29.8,16.0,29.78,West,270,0.0,4.0,56,0.00,,---,0.00,VWS V14.01,2013-04-02 07:30:00,
2013-04-02 05:00:00,30.3,14.8,29.78,West,270,1.0,9.0,52,0.00,,---,0.00,VWS V14.01,2013-04-02 08:00:00,
2013-04-02 05:30:00,29.8,16.0,29.78,West,270,0.0,5.0,56,0.00,,---,0.00,VWS V14.01,2013-04-02 08:30:00,
2013-04-02 06:00:00,29.7,13.8,29.79,WSW,248,1.0,9.0,51,0.00,,---,0.00,VWS V14.01,2013-04-02 09:00:00,
2013-04-02 06:30:00,29.1,14.1,29.80,WSW,248,0.0,3.0,53,0.00,,---,0.00,VWS V14.01,2013-04-02 09:30:00,
2013-04-02 07:00:00,29.0,12.2,29.80,WSW,248,1.0,6.0,49,0.00,,---,0.00,VWS V14.01,2013-04-02 10:00:00,
2013-04-02 07:30:00,29.1,11.4,29.80,WSW,248,1.0,4.0,47,0.00,,---,0.00,VWS V14.01,2013-04-02 10:30:00,
2013-04-02 08:00:00,28.5,12.7,29.81,WSW,248,1.0,3.0,51,0.00,,---,0.00,VWS V14.01,2013-04-02 11:00:00,
2013-04-02 08:30:00,29.3,14.3,29.82,SW,225,1.0,3.0,53,0.00,,---,0.00,VWS V14.01,2013-04-02 11:30:00,
2013-04-02 09:00:00,30.7,14.3,29.83,SSW,202,2.0,9.0,50,0.00,,---,0.00,VWS V14.01,2013-04-02 12:00:00,
2013-04-02 09:30:00,32.3,13.4,29.83,SW,225,3.0,9.0,45,0.00,,---,0.00,VWS V14.01,2013-04-02 12:30:00,
2013-04-02 10:00:00,34.5,12.7,29.82,SW,225,3.0,9.0,40,0.00,,---,0.00,VWS V14.01,2013-04-02 13:00:00,
2013-04-02 10:30:00,35.7,12.0,29.82,SW,225,4.0,13.0,37,0.00,,---,0.00,VWS V14.01,2013-04-02 13:30:00,
2013-04-02 11:00:00,36.7,11.0,29.82,WSW,248,5.0,16.0,34,0.00,,---,0.00,VWS V14.01,2013-04-02 14:00:00,
2013-04-02 11:30:00,37.8,10.6,29.82,WSW,248,4.0,15.0,32,0.00,,---,0.00,VWS V14.01,2013-04-02 14:30:00,
2013-04-02 12:00:00,37.2,10.8,29.81,WSW,248,3.0,13.0,33,0.00,,---,0.00,VWS V14.01,2013-04-02 15:00:00,
2013-04-02 12:30:00,38.4,11.1,29.81,WSW,248,4.0,15.0,32,0.00,,---,0.00,VWS V14.01,2013-04-02 15:30:00,
2013-04-02 13:30:00,39.0,12.4,29.80,SW,225,4.0,13.0,33,0.00,,---,0.00,VWS V14.01,2013-04-02 16:30:00,
2013-04-02 14:00:00,38.3,11.7,29.79,SW,225,4.0,10.0,33,0.00,,---,0.00,VWS V14.01,2013-04-02 17:00:00,
2013-04-02 14:30:00,37.5,14.2,29.78,SW,225,4.0,12.0,38,0.00,,---,0.00,VWS V14.01,2013-04-02 17:30:00,
2013-04-02 15:00:00,38.7,17.0,29.78,SW,225,5.0,14.0,41,0.00,,---,0.00,VWS V14.01,2013-04-02 18:00:00,
2013-04-02 15:30:00,38.8,14.8,29.77,SW,225,4.0,15.0,37,0.00,,---,0.00,VWS V14.01,2013-04-02 18:30:00,
2013-04-02 16:00:00,39.1,15.6,29.77,SW,225,5.0,13.0,38,0.00,,---,0.00,VWS V14.01,2013-04-02 19:00:00,
2013-04-02 16:30:00,39.6,14.9,29.77,SW,225,4.0,11.0,36,0.00,,---,0.00,VWS V14.01,2013-04-02 19:30:00,
2013-04-02 17:00:00,38.3,13.1,29.76,SW,225,4.0,12.0,35,0.00,,---,0.00,VWS V14.01,2013-04-02 20:00:00,
2013-04-02 17:30:00,37.7,13.2,29.76,SW,225,5.0,12.0,36,0.00,,---,0.00,VWS V14.01,2013-04-02 20:30:00,
2013-04-02 18:00:00,37.4,12.9,29.77,SW,225,5.0,16.0,36,0.00,,---,0.00,VWS V14.01,2013-04-02 21:00:00,
2013-04-02 18:30:00,36.8,11.7,29.79,WSW,248,4.0,13.0,35,0.00,,---,0.00,VWS V14.01,2013-04-02 21:30:00,
2013-04-02 19:00:00,37.1,14.4,29.81,WSW,248,3.0,15.0,39,0.00,,---,0.00,VWS V14.01,2013-04-02 22:00:00,
2013-04-02 19:30:00,35.9,12.8,29.82,WSW,248,4.0,12.0,38,0.00,,---,0.00,VWS V14.01,2013-04-02 22:30:00,
2013-04-02 20:00:00,34.6,13.9,29.83,SW,225,4.0,11.0,42,0.00,,---,0.00,VWS V14.01,2013-04-02 23:00:00,
2013-04-02 20:30:00,33.7,14.1,29.84,WSW,248,3.0,8.0,44,0.00,,---,0.00,VWS V14.01,2013-04-02 23:30:00,
2013-04-02 21:00:00,33.4,14.4,29.85,WSW,248,3.0,10.0,45,0.00,,---,0.00,VWS V14.01,2013-04-03 00:00:00,
2013-04-02 21:30:00,32.8,14.8,29.86,SW,225,2.0,6.0,47,0.00,,---,0.00,VWS V14.01,2013-04-03 00:30:00,
2013-04-02 22:29:00,32.5,14.0,29.88,WSW,247,7.0,7.0,46,1.65,,---,0.00,VWS V14.01,2013-04-03 01:29:00,
2013-04-02 22:30:00,32.5,14.0,29.88,SW,235,1.0,6.0,46,1.65,,---,0.00,VWS V14.01,2013-04-03 01:30:00,
2013-04-02 22:34:00,32.5,14.0,29.88,SSW,213,2.0,6.0,46,1.65,,---,0.00,VWS V14.01,2013-04-03 01:34:00,
2013-04-02 22:40:00,32.4,13.9,29.88,WSW,250,1.0,6.0,46,1.65,,---,0.00,VWS V14.01,2013-04-03 01:40:00,
2013-04-02 22:46:00,32.4,13.9,29.88,WSW,246,1.0,6.0,46,1.65,,---,0.00,VWS V14.01,2013-04-03 01:46:00,
2013-04-02 22:52:00,32.3,13.9,29.88,WSW,246,2.0,6.0,46,1.65,,---,0.00,VWS V14.01,2013-04-03 01:52:00,
2013-04-02 22:58:00,32.3,13.9,29.87,WSW,250,0.0,6.0,46,1.65,,---,0.00,VWS V14.01,2013-04-03 01:58:00,
2013-04-02 23:04:00,32.2,13.8,29.87,SSW,201,1.0,6.0,46,0.00,,---,0.00,VWS V14.01,2013-04-03 02:04:00,
2013-04-02 23:10:00,32.1,13.7,29.87,West,271,3.0,6.0,46,0.00,,---,0.00,VWS V14.01,2013-04-03 02:10:00,
2013-04-02 23:15:00,32.0,14.1,29.87,SW,234,2.0,6.0,47,0.00,,---,0.00,VWS V14.01,2013-04-03 02:15:00,
2013-04-02 23:20:00,31.9,14.0,29.87,SW,234,1.0,6.0,47,0.00,,---,0.00,VWS V14.01,2013-04-03 02:20:00,
2013-04-02 23:27:00,31.8,14.4,29.87,SW,219,1.0,6.0,48,0.00,,---,0.00,VWS V14.01,2013-04-03 02:27:00,
2013-04-02 23:33:00,31.7,14.3,29.87,SW,222,1.0,6.0,48,0.00,,---,0.00,VWS V14.01,2013-04-03 02:33:00,
2013-04-02 23:38:00,31.6,14.2,29.88,SW,222,0.0,6.0,48,0.00,,---,0.00,VWS V14.01,2013-04-03 02:38:00,
2013-04-02 23:44:00,31.5,14.1,29.88,SW,222,0.0,6.0,48,0.00,,---,0.00,VWS V14.01,2013-04-03 02:44:00,
2013-04-02 23:50:00,31.2,14.7,29.88,South,169,1.0,6.0,50,0.00,,---,0.00,VWS V14.01,2013-04-03 02:50:00,
2013-04-02 23:56:00,30.9,14.9,29.88,South,171,1.0,6.0,51,0.00,,---,0.00,VWS V14.01,2013-04-03 02:56:00,